Regional Weather Roundup
Issued by NWS

Home | Current Version | Previous Version | Graphics & Text | Print | Product List | Glossary On
Versions: 1 2 3 4 5 6 7 8 9 10 11 12 13 14 15 16 17 18 19 20 21 22 23 24 25 26 27 28 29 30 31 32 33 34 35 36 37 38 39 40 41 42 43 44 45 46 47 48 49 50
063
ASUS43 KBIS 300602
RWRND

NORTH DAKOTA REGIONAL WEATHER ROUNDUP
NATIONAL WEATHER SERVICE BISMARCK ND
100 AM CDT THU MAR 30 2017

NOTE: "FAIR" INDICATES FEW OR NO CLOUDS BELOW 12,000 FEET WITH NO
SIGNIFICANT WEATHER AND/OR OBSTRUCTIONS TO VISIBILITY.


NDZ001>003-009>011-017-300700-
NORTHWEST NORTH DAKOTA

CITY           SKY/WX    TMP DP  RH WIND       PRES   REMARKS
WILLISTON      FAIR      44  33  65 CALM      29.81F
6HR MIN TEMP:  41; 6HR MAX TEMP:  61;

MINOT          FAIR      49  39  68 W3        29.81F
$$

NDZ018>021-031>035-040>046-300700-
SOUTHWEST NORTH DAKOTA

CITY           SKY/WX    TMP DP  RH WIND       PRES   REMARKS
BISMARCK       CLOUDY    50  35  56 S17       29.92F
6HR MIN TEMP:  50; 6HR MAX TEMP:  62;

DICKINSON      FAIR      41  36  82 S12       29.83F
GARRISON         N/A     42  36  79 S8        29.84F
6HR MIN TEMP:  40; 6HR MAX TEMP:  54;

HETTINGER ARPT CLEAR     43  37  79 S15       29.89F
$$

NDZ004>008-012>016-024-026-027-054-300700-
NORTHEAST NORTH DAKOTA

CITY           SKY/WX    TMP DP  RH WIND       PRES   REMARKS
GRAND FORKS    MOCLDY    43  38  82 S14       29.98F
GRND FRKS AFB  PTCLDY    44  36  74 S21       29.96F
DEVILS LAKE    MOCLDY    45  36  70 S20G29    29.91R
$$

NDZ022-023-025-028>030-036>039-047>053-300700-
SOUTHEAST NORTH DAKOTA

CITY           SKY/WX    TMP DP  RH WIND       PRES   REMARKS
FARGO          CLEAR     41  37  86 S13       30.03S
6HR MIN TEMP:  41; 6HR MAX TEMP:  56;

JAMESTOWN      CLOUDY    40  35  83 S18       29.97S
$$





USA.gov is the U.S. government's official web portal to all federal, state and local government web resources and services.